[[{"header":{"parameterUnit":"m.s-1","parameterCategory":1,"la1":30.2991,"la2":30.254,"lo1":-89.0895,"lo2":-89.0444,"dy":0.0017,"dx":0.0017,"nx":28,"ny":28,"refTime":"2025-07-22T09:00:00:Z","depth":0,"parameterNumber":2,"parameterNumberName":"U-component_of_WINDS"},"data":[0,0,0,0,0,0,0,0,0,0,0,0,0,0,0,0,0,0,0,0,0,0,0,0,0,0,0,0,0,0,0,0,0,0,0,0,0,0,0,0,0,0,0,0,0,0,0,0,0,0,0,0,0,0,0,0,0,0,2.3026,2.3026,0,2.3011,2.3011,2.3011,2.2965,2.2964,2.2963,2.2962,2.2949,2.2949,2.295,0,0,0,0,0,0,0,0,0,0,0,0,0,2.3017,2.3018,2.3026,2.3026,2.3026,2.3011,2.3011,2.3011,2.2965,2.2964,2.2962,2.2961,2.2948,2.2949,2.295,0,0,0,0,0,0,0,0,0,0,0,0,0,2.3014,2.3018,2.3026,2.3001,2.2998,2.3011,2.3011,2.3011,2.2965,2.2964,2.2962,2.2961,2.2948,2.2949,2.295,2.2986,0,0,2.2953,2.2953,0,0,0,0,0,0,0,0,2.3014,2.3014,2.3005,2.3003,2.3,2.2988,2.3003,2.3003,2.2966,2.2978,2.2962,2.296,2.2963,2.2963,2.2963,2.2986,2.2985,2.2953,2.2953,2.2954,2.2954,0,0,0,0,0,0,0,2.3014,2.3014,2.302,2.3005,2.3002,2.2991,2.2989,2.3003,2.2979,2.2977,2.2973,2.2972,2.2962,2.2963,2.2963,2.2985,2.2953,2.2953,2.2954,2.2954,2.3039,2.3041,0,0,0,0,0,0,2.3018,2.3015,2.3021,2.302,2.3003,2.2993,2.299,2.2994,2.2979,2.2975,2.2973,2.297,2.2962,2.2962,2.2962,2.3006,2.2954,2.2954,2.2955,2.3038,2.304,2.3041,0,0,0,0,0,0,2.3018,2.3019,2.3021,2.3016,2.3016,2.2995,2.2999,2.2994,2.2995,2.2977,2.2972,2.2979,2.2961,2.2961,2.2981,2.3005,2.2955,2.2956,2.3036,2.3038,2.3041,2.3092,0,0,0,0,0,0,2.3018,2.3019,2.3032,2.3017,2.3016,2.304,2.3,2.2995,2.2997,2.2992,2.298,2.2977,2.2959,2.298,2.2982,2.3005,2.2956,2.3033,2.3037,2.304,2.3088,2.3096,2.3103,0,0,0,0,0,2.3017,2.3047,2.3033,2.3034,2.3032,2.3041,2.3041,2.3019,2.2999,2.3012,2.3001,2.2977,2.3001,2.2982,2.2984,2.3008,2.3032,2.3036,2.3039,2.3085,2.3095,2.3103,0,0,0,0,0,0,2.3065,2.3044,2.3028,2.3053,2.3049,2.3033,2.3049,2.303,2.3032,2.3028,2.3001,2.2999,2.3024,2.3018,2.2997,2.3044,2.3013,2.3017,2.3047,2.3056,2.3063,2.3065,2.2957,0,0,0,0,0,2.3078,2.3087,2.3068,2.3092,2.3091,2.3071,2.3074,2.3058,2.3053,2.3051,2.3041,2.3038,2.3045,2.305,2.3055,2.3087,2.3085,2.3104,2.3112,2.3118,2.3122,2.3141,2.315,2.3054,2.3054,2.3054,0,0,2.3106,2.3096,2.3103,2.3102,2.3097,2.3108,2.307,2.3082,2.309,2.3053,2.3072,2.3065,2.3059,2.3087,2.3098,2.3082,2.3148,2.3123,2.3128,2.3129,2.3146,2.3155,2.3163,2.3057,2.3056,2.3056,0,0,2.3162,2.3154,2.3175,2.3171,2.3164,2.315,2.3155,2.3142,2.3136,2.3155,2.3128,2.3137,2.3149,2.3147,2.3148,2.3206,2.3185,2.3208,2.3247,2.3265,2.3273,2.328,2.3302,2.3311,2.3212,2.3212,2.3213,0,2.3198,2.3212,2.3188,2.3202,2.3204,2.3171,2.3192,2.3189,2.3185,2.3187,2.3169,2.3185,2.3179,2.3206,2.322,2.3221,2.3228,2.321,2.3274,2.328,2.3286,2.3307,2.3316,2.3215,2.3215,2.3215,2.3214,0,2.3257,2.3268,2.3285,2.3282,2.3285,2.3303,2.3283,2.3289,2.3273,2.3262,2.3283,2.3274,2.3278,2.3283,2.3267,2.3309,2.33,2.3278,2.3247,2.3299,2.3318,2.3326,2.322,2.3219,2.3218,2.3217,0,0,2.3343,2.3326,2.3333,2.3333,2.3323,2.3331,2.3349,2.3352,2.3359,2.3357,2.3373,2.3384,2.3365,2.3366,2.335,2.3366,2.3415,2.3343,2.3342,2.3358,2.3463,2.348,2.349,2.3401,2.3402,2.3403,2.3464,0,2.3398,2.3426,2.3405,2.3438,2.3448,2.3418,2.3433,2.343,2.342,2.3429,2.3418,2.3428,2.34,2.3401,2.3416,2.3406,2.3436,2.3401,2.3417,2.3417,2.3421,2.35,2.3518,2.3576,2.3471,2.3473,2.3473,0,2.3465,2.3467,2.3501,2.3491,2.3495,2.3509,2.3512,2.352,2.3516,2.3508,2.351,2.349,2.3508,2.3477,2.3502,2.3479,2.3484,2.3481,2.3482,2.3484,2.345,2.3506,2.3593,2.3603,2.3485,2.3484,2.3483,0,2.3527,2.3538,2.356,2.3559,2.3548,2.3559,2.3555,2.355,2.3554,2.3557,2.356,2.3565,2.3568,2.3573,2.3556,2.3534,2.3584,2.3551,2.358,2.3581,2.3593,2.3593,2.3684,2.3593,2.3593,2.3593,2.3593,0,2.3592,2.3614,2.3588,2.3601,2.3626,2.3603,2.3628,2.3621,2.3617,2.363,2.3603,2.3616,2.3592,2.3603,2.3589,2.3614,2.3615,2.361,2.3607,2.3614,2.3615,2.3618,2.3614,2.3595,2.3595,2.3594,2.3594,0,2.3665,2.3648,2.367,2.3658,2.3656,2.3675,2.3665,2.3678,2.3667,2.3684,2.3686,2.3669,2.3681,2.3664,2.3673,2.3665,2.3699,2.3689,2.37,2.3698,2.3729,2.3727,2.3827,2.384,2.3739,2.374,2.3741,0,2.3708,2.3725,2.3715,2.3721,2.3719,2.373,2.3734,2.3712,2.3718,2.3716,2.373,2.374,2.3746,2.3766,2.3756,2.3763,2.3754,2.3789,2.3755,2.3762,2.3757,2.3757,2.376,2.3796,2.3797,2.3798,2.3799,0,2.3788,2.3779,2.3786,2.3791,2.3797,2.38,2.3801,2.3808,2.3785,2.3794,2.3805,2.381,2.382,2.3831,2.3836,2.3833,2.3813,2.3809,2.3817,2.3825,2.3832,2.3831,2.3721,2.3807,2.3807,2.3806,2.3806,2.3805,2.3848,2.3863,2.3858,2.3868,2.3866,2.3868,2.3881,2.3871,2.388,2.3887,2.3874,2.3889,2.3887,2.3892,2.3891,2.3904,2.3889,2.3899,2.3902,2.3906,2.3912,2.3829,2.3905,2.3904,2.3904,2.3904,2.3904,0,2.3928,2.3924,2.3933,2.3936,2.3944,2.3923,2.3924,2.3932,2.3946,2.3945,2.3952,2.3967,2.3977,2.3968,2.3977,2.3989,2.398,2.3992,2.3992,2.3992,2.3923,2.3917,2.3999,2.3999,2.3999,2.3999,2.3999,2.3999,2.3971,2.3994,2.3985,2.4009,2.4004,2.4019,2.4022,2.4024,2.4024,2.4041,2.4049,2.4043,2.4039,2.4048,2.4057,2.4054,2.406,2.4075,2.4069,2.4006,2.3996,2.3988,2.3982,2.4076,2.4076,2.4137,2.4138,2.4138]},{"header":{"parameterUnit":"m.s-1","parameterCategory":1,"la1":30.2991,"la2":30.254,"lo1":-89.0895,"lo2":-89.0444,"dy":0.0017,"dx":0.0017,"nx":28,"ny":28,"refTime":"2025-07-22T09:00:00:Z","depth":0,"parameterNumber":3,"parameterNumberName":"V-component_of_WINDS"},"data":[0,0,0,0,0,0,0,0,0,0,0,0,0,0,0,0,0,0,0,0,0,0,0,0,0,0,0,0,0,0,0,0,0,0,0,0,0,0,0,0,0,0,0,0,0,0,0,0,0,0,0,0,0,0,0,0,0,0,-2.452,-2.4519,0,-2.4467,-2.4467,-2.4466,-2.4426,-2.4425,-2.4425,-2.4424,-2.437,-2.4369,-2.4368,0,0,0,0,0,0,0,0,0,0,0,0,0,-2.4586,-2.4585,-2.452,-2.4519,-2.4519,-2.4468,-2.4467,-2.4466,-2.4426,-2.4425,-2.4425,-2.4424,-2.4371,-2.4369,-2.4368,0,0,0,0,0,0,0,0,0,0,0,0,0,-2.4548,-2.4585,-2.452,-2.4492,-2.4489,-2.4468,-2.4467,-2.4466,-2.4426,-2.4425,-2.4425,-2.4424,-2.4371,-2.4369,-2.4368,-2.4369,0,0,-2.4363,-2.4362,0,0,0,0,0,0,0,0,-2.455,-2.4545,-2.4497,-2.4494,-2.4491,-2.4453,-2.447,-2.4434,-2.4426,-2.445,-2.4424,-2.4424,-2.4398,-2.4394,-2.4386,-2.4367,-2.4365,-2.4363,-2.4362,-2.4361,-2.4361,0,0,0,0,0,0,0,-2.4553,-2.4547,-2.4499,-2.4496,-2.4493,-2.4483,-2.4477,-2.4463,-2.4428,-2.4448,-2.4445,-2.4439,-2.4396,-2.4387,-2.4384,-2.4364,-2.4363,-2.4361,-2.436,-2.436,-2.4346,-2.4347,0,0,0,0,0,0,-2.456,-2.455,-2.4501,-2.4498,-2.452,-2.4482,-2.4475,-2.4465,-2.4428,-2.4422,-2.444,-2.4437,-2.439,-2.4386,-2.4382,-2.4383,-2.4361,-2.436,-2.4359,-2.4346,-2.4347,-2.4347,0,0,0,0,0,0,-2.4561,-2.4556,-2.4503,-2.4523,-2.4515,-2.4482,-2.4471,-2.4465,-2.4456,-2.4422,-2.4415,-2.4437,-2.439,-2.4384,-2.4373,-2.4381,-2.4359,-2.4357,-2.4345,-2.4346,-2.4347,-2.4384,0,0,0,0,0,0,-2.4563,-2.4556,-2.4556,-2.4523,-2.4515,-2.4495,-2.4471,-2.4464,-2.4453,-2.445,-2.4417,-2.4412,-2.4389,-2.4376,-2.4372,-2.4378,-2.4356,-2.4344,-2.4345,-2.4347,-2.4382,-2.4386,-2.439,0,0,0,0,0,-2.4566,-2.4568,-2.4556,-2.4551,-2.4514,-2.4495,-2.4491,-2.4464,-2.4454,-2.4454,-2.4432,-2.4413,-2.438,-2.4375,-2.437,-2.4376,-2.4344,-2.4345,-2.4346,-2.4381,-2.4386,-2.439,0,0,0,0,0,0,-2.4602,-2.4563,-2.455,-2.4542,-2.4522,-2.4489,-2.4488,-2.447,-2.4453,-2.4451,-2.4419,-2.4412,-2.4405,-2.4389,-2.4384,-2.4377,-2.436,-2.436,-2.4387,-2.4392,-2.4396,-2.44,-2.4355,0,0,0,0,0,-2.4609,-2.4598,-2.4564,-2.456,-2.4551,-2.4522,-2.4512,-2.4494,-2.4473,-2.4464,-2.4442,-2.4422,-2.4408,-2.4399,-2.4383,-2.438,-2.4373,-2.4381,-2.4385,-2.4389,-2.4389,-2.4389,-2.4392,-2.4352,-2.4352,-2.4352,0,0,-2.4623,-2.4601,-2.4595,-2.4567,-2.455,-2.454,-2.4515,-2.4504,-2.4496,-2.4463,-2.4452,-2.4435,-2.4411,-2.4404,-2.44,-2.4391,-2.4399,-2.439,-2.4393,-2.4392,-2.4391,-2.4394,-2.4398,-2.4353,-2.4353,-2.4352,0,0,-2.4645,-2.4626,-2.4621,-2.4605,-2.458,-2.4561,-2.456,-2.4529,-2.4517,-2.4506,-2.4481,-2.4472,-2.4447,-2.4431,-2.442,-2.4439,-2.442,-2.4434,-2.4454,-2.4454,-2.4457,-2.446,-2.4468,-2.4471,-2.4435,-2.4435,-2.4435,0,-2.4665,-2.4648,-2.4621,-2.4613,-2.4602,-2.4572,-2.4568,-2.4554,-2.4525,-2.4519,-2.4508,-2.4479,-2.446,-2.445,-2.4455,-2.4447,-2.4446,-2.4438,-2.4459,-2.4461,-2.4464,-2.4471,-2.4474,-2.4437,-2.4437,-2.4437,-2.4437,0,-2.4676,-2.4665,-2.4665,-2.4639,-2.4628,-2.4622,-2.4594,-2.4586,-2.457,-2.4552,-2.4542,-2.4519,-2.45,-2.4496,-2.4479,-2.4485,-2.448,-2.4465,-2.4447,-2.447,-2.4477,-2.4479,-2.444,-2.4439,-2.4439,-2.4438,0,0,-2.4717,-2.4679,-2.4679,-2.4668,-2.4639,-2.463,-2.4624,-2.4605,-2.46,-2.4582,-2.4576,-2.4557,-2.4544,-2.4531,-2.4513,-2.4512,-2.4531,-2.4497,-2.4496,-2.4506,-2.4538,-2.455,-2.4554,-2.4518,-2.4519,-2.4519,-2.4541,0,-2.4735,-2.4721,-2.4698,-2.4692,-2.4683,-2.4656,-2.465,-2.4632,-2.4616,-2.4606,-2.4587,-2.4575,-2.4557,-2.455,-2.4548,-2.4529,-2.4537,-2.4527,-2.4514,-2.4514,-2.4522,-2.4557,-2.4569,-2.459,-2.4543,-2.4543,-2.4543,0,-2.4753,-2.4738,-2.4732,-2.4706,-2.4701,-2.4696,-2.4679,-2.4669,-2.4649,-2.4638,-2.4625,-2.4605,-2.4598,-2.4582,-2.4572,-2.4566,-2.4559,-2.4549,-2.455,-2.4548,-2.4531,-2.4558,-2.4596,-2.46,-2.4547,-2.4546,-2.4546,0,-2.4786,-2.4763,-2.4757,-2.4748,-2.4718,-2.4716,-2.4703,-2.4682,-2.4674,-2.4659,-2.4653,-2.4637,-2.4629,-2.4618,-2.4595,-2.4585,-2.4588,-2.457,-2.4579,-2.458,-2.4581,-2.4582,-2.4621,-2.4576,-2.4576,-2.4576,-2.4576,0,-2.4808,-2.4805,-2.4772,-2.4768,-2.4766,-2.4739,-2.4737,-2.4722,-2.4704,-2.4698,-2.4673,-2.4668,-2.4637,-2.4629,-2.4611,-2.4607,-2.4603,-2.4594,-2.4589,-2.4596,-2.4598,-2.4592,-2.4591,-2.4576,-2.4576,-2.4576,-2.4576,0,-2.4844,-2.4821,-2.4813,-2.4786,-2.4779,-2.4778,-2.4755,-2.4751,-2.4734,-2.4726,-2.4723,-2.4696,-2.4685,-2.4661,-2.4643,-2.4631,-2.4632,-2.4622,-2.4639,-2.4636,-2.4647,-2.4647,-2.4685,-2.469,-2.4641,-2.4641,-2.4642,0,-2.486,-2.4858,-2.4831,-2.4825,-2.4814,-2.4805,-2.4796,-2.4771,-2.4763,-2.4742,-2.4741,-2.4728,-2.4717,-2.4701,-2.468,-2.4666,-2.4658,-2.4672,-2.4655,-2.4664,-2.466,-2.4661,-2.4661,-2.4676,-2.4676,-2.4677,-2.4677,0,-2.4891,-2.4881,-2.487,-2.4856,-2.4847,-2.4835,-2.4821,-2.4818,-2.4789,-2.4782,-2.4771,-2.4762,-2.4745,-2.4733,-2.4717,-2.4705,-2.4687,-2.4683,-2.4685,-2.4693,-2.4703,-2.4699,-2.465,-2.4682,-2.4682,-2.4681,-2.4681,-2.4681,-2.4919,-2.4917,-2.4898,-2.4888,-2.4875,-2.4863,-2.4859,-2.4842,-2.4833,-2.4817,-2.4803,-2.4794,-2.4776,-2.4753,-2.4742,-2.4735,-2.4725,-2.4728,-2.4728,-2.473,-2.4734,-2.4703,-2.4731,-2.4731,-2.4731,-2.4731,-2.4731,0,-2.495,-2.4938,-2.4929,-2.4911,-2.4903,-2.4888,-2.4872,-2.4867,-2.4859,-2.4845,-2.4834,-2.4823,-2.4812,-2.4791,-2.4779,-2.4777,-2.4769,-2.4775,-2.4775,-2.4773,-2.4742,-2.4742,-2.4782,-2.4782,-2.4782,-2.4782,-2.4782,-2.4782,-2.4966,-2.4962,-2.495,-2.4941,-2.4928,-2.4919,-2.4912,-2.4902,-2.489,-2.4879,-2.487,-2.4857,-2.484,-2.4827,-2.4817,-2.4811,-2.4808,-2.4817,-2.4809,-2.478,-2.4775,-2.477,-2.4771,-2.4816,-2.4816,-2.4841,-2.4841,-2.4841]}]]